Current weather by "City, St" or "zip code"  
 

Current Conditions: Portland, Portland-Troutdale Airport, OR

A Few Clouds


48.0 F

Last Updated on Oct 31 2020, 11:53 am PDT
Humidity: 77%
Wind Speed: 3.5 mph
Barometer 30.36 in
Dewpoint: 41.0 F
Visibility: 10.00 mi
Precip: --
Heat Index: NA
Wind Chill: NA
Current conditions at:

Portland, Portland-Troutdale Airport, OR (KTTD)

Lat: 45.55111 Lon: 122.40889

Local Radar Image active severe weather and emergency alerts image image weather storm and storm spotter reports image weather observation monitoring service image
Local
Radar
Active
Alerts
Storm Reports Obs
Monitoring

Sign-up For Email & Text Message Weather Alert Notification Services



Advertise Here

Observation History for Portland, Portland-Troutdale Airport, OR


Time Wind
(mph)
Vis
(mi)
Weather Precip (in) Temperature (F) Relative
Humidity
Wind
Chill
(F)
Heat
Index
(F)
Pressure
Air Dwpt altimeter
(in)
sea level
(mb)
Rmks
11:53 am PDT 3.5 10.00 A Few Clouds -- 48.0 41.0 77% NA NA 30.36 1027.9
10:53 am PDT NW 4.6 10.00 A Few Clouds -- 45.0 39.9 83% 43 NA 30.37 1028.4
9:53 am PDT N 0.0 10.00 Mostly Cloudy -- 43.0 39.0 86% NA NA 30.38 1028.8
8:53 am PDT N 0.0 0.25 Fog -- 41.0 37.9 89% NA NA 30.39 1029.0
7:53 am PDT N 0.0 0.50 Fog -- 40.0 37.0 89% NA NA 30.36 1028.2
5:53 am PDT N 0.0 0.50 Fog -- 38.0 35.1 89% NA NA 30.36 1027.9
4:53 am PDT N 0.0 6.00 Fog/Mist -- 40.0 36.0 86% NA NA 30.34 1027.4
3:53 am PDT N 0.0 0.50 Fog -- 37.0 34.0 89% NA NA 30.34 1027.3
2:53 am PDT N 0.0 3.00 Fog/Mist -- 40.0 36.0 86% NA NA 30.34 1027.2
1:53 am PDT N 0.0 10.00 Fair -- 41.0 36.0 82% NA NA 30.32 1026.6
12:53 am PDT N 0.0 10.00 Fair -- 40.0 36.0 86% NA NA 30.30 1026.2
11:53 pm PDT N 0.0 10.00 Fair -- 43.0 37.9 82% NA NA 30.31 1026.5
10:53 pm PDT N 0.0 10.00 Partly Cloudy -- 46.0 39.0 77% NA NA 30.31 1026.2
9:53 pm PDT N 0.0 10.00 Mostly Cloudy -- 51.0 39.9 66% NA NA 30.28 1025.3
8:53 pm PDT N 0.0 10.00 Fair -- 48.0 39.0 71% NA NA 30.26 1024.5
7:53 pm PDT 3.5 10.00 A Few Clouds -- 53.0 39.9 61% NA NA 30.24 1023.9
6:53 pm PDT N 0.0 10.00 Fair -- 56.0 41.0 57% NA NA 30.21 1022.8
5:53 pm PDT 4.6 10.00 Mostly Cloudy -- 58.0 42.1 56% 58 NA 30.18 1021.9
4:53 pm PDT W 5.8 10.00 Mostly Cloudy -- 60.0 44.1 56% 60 NA 30.16 1021.4
3:53 pm PDT W 5.8 10.00 Mostly Cloudy -- 60.0 46.0 60% 60 NA 30.14 1020.7
2:53 pm PDT W 9.2 10.00 Mostly Cloudy -- 60.0 48.0 65% 59 NA 30.14 1020.6
1:53 pm PDT SW 8.1 10.00 Partly Cloudy -- 59.0 48.0 67% 58 NA 30.15 1021.0
12:53 pm PDT N 0.0 10.00 Mostly Cloudy -- 56.0 48.9 77% NA NA 30.16 1021.3

Regional Weather Observation


Pearson Airfield, WA (KVUO)

Fair
49.0 F

Portland, Portland International Airport, OR (KPDX)

Partly Cloudy
47.0 F

Portland, Portland-Troutdale Airport, OR (KTTD)

A Few Clouds
48.0 F

Portland-Hillsboro Airport, OR (KHIO)

Fair
52.0 F

Aurora State Airport, OR (KUAO)

Fair
51.0 F

Southwest Washington Regional Airport, WA (KKLS)

Fair
47.0 F